Location: Middelsbur
(53.6609°N, 7.5020°E)
Time: 13:11:26
(UTC+00:00)

NOSS 3-3 (C) - Pass Details

Date: 06 July 2020
Orbit: 824 x 1388 km, 63.4° (Epoch: 03 August)

Event Time Altitude Azimuth Distance (km) Brightness Sun altitude
Rises 21:32:47 0° 214° (SW) 3,440 6.6 -9.3°
Reaches altitude 10° 21:35:09 10° 212° (SSW) 2,553 5.9 -9.5°
Maximum altitude 21:41:01 68° 131° (SE) 1,036 4.0 -9.9°
Drops below altitude 10° 21:47:45 10° 50° (NE) 2,915 6.7 -10.3°
Sets 21:50:37 0° 48° (NE) 3,963 7.4 -10.5°
